Погода в Березнике

Россия / Архангельская область     62°51′04″N   42°43′21″E
темп.,
°C
ветер,
м/с
пор.,
м/с
влажн.,
%
обл.,
%
осадки,
мм/ч
давл.,
гПа
погр.,
м
5 марта, пт
пт500:00−18сз239779 0.0 99740
03:00−19сз259862 0.0 999125
06:00−18сз269790 0.1 1000180
09:00−16сз369491 0.2 1001321
12:00−13сз3590100 0.1 1002521
15:00−12сз3687100 0.3 1005707
18:00−14сз259699 0.1 1006170
21:00−15сз269791 0.1 1008213
6 марта, сб
сб600:00−19сз259993 0.1 100891
03:00−22зсз239985 0.1 101049
06:00−21зсз229895 0.0 101053
09:00−18зюз139696 0.1 1010142
12:00−13з1388100 0.0 1009420
15:00−10юз1387100 0.1 1008524
18:00−14ююв239566 0.0 100648
21:00−15ююв369654 0.0 1004136
7 марта, вс
вс700:00−16ююв379652 0.0 1002173
03:00−16юв499671 0.0 1000266
06:00−15юв51293100 0.0 998359
09:00−14юв51192100 0.1 997436
12:00−11вюв51090100 0.2 996579
15:00−10вюв51090100 0.4 996706
18:00−10вюв41094100 0.4 997662
21:00−11в41093100 0.7 999624
8 марта, пн
пн800:00−12всв4992100 0.2 999468
03:00−14св4993100 0.4 1001421
06:00−16св41090100 0.1 1002435
09:00−16св4989100 0.1 1004429
12:00−15ссв4888100 0.0 1005438
15:00−14ссв488799 0.0 1007604
18:00−18с3893100 0.0 1008331
21:00−23с379694 0.0 1010179
9 марта, вт
вт900:00−26ссз359725 0.0 1012123
03:00−28ссз259712 0.0 1013108
06:00−30ссз25970 0.0 1015100
09:00−28с24940 0.0 1016228
12:00−23ссз359233 0.0 1017379
15:00−21ссз359063 0.0 1017486
18:00−24ссз239798 0.0 101861
21:00−28с229658 0.0 102019